TEJ071 SCEL-SCIE

Flight info

Callsign TEJ071
Flight time N/A
Altitude 29000
Route GELUS5B GELUS UQ809 ARUNI ARUNI1A
Aircraft B789/H-SDE1E2E3FGHIJ2J3J4J5M1RWXY/LB1D1

Departure

Time 2026-05-06 00:49
Airport Comodoro Arturo Merino Benítez International Airport (SCEL)

Arrival

Time N/A
Airport Carriel Sur International Airport (SCIE)
Time Latitude Longitude Altitude Speed Heading
2026-05-06 00:37 -33.39924 -70.79801 1570 ft 0 kts 176°
2026-05-06 00:38 -33.39914 -70.79802 1570 ft 3 kts 176°
2026-05-06 00:38 -33.39895 -70.79804 1570 ft 3 kts 195°
2026-05-06 00:38 -33.39876 -70.79795 1570 ft 3 kts 233°
2026-05-06 00:39 -33.39867 -70.79775 1570 ft 1 kts 267°
2026-05-06 00:39 -33.39867 -70.79774 1570 ft 0 kts 267°
2026-05-06 00:42 -33.39867 -70.79775 1570 ft 2 kts 268°
2026-05-06 00:42 -33.39856 -70.79855 1570 ft 17 kts 277°
2026-05-06 00:42 -33.39836 -70.80015 1572 ft 18 kts 321°
2026-05-06 00:42 -33.39717 -70.80038 1572 ft 17 kts 359°
2026-05-06 00:43 -33.39592 -70.80041 1571 ft 18 kts 359°
2026-05-06 00:43 -33.39461 -70.80044 1571 ft 19 kts 358°
2026-05-06 00:43 -33.39328 -70.80055 1572 ft 19 kts 355°
2026-05-06 00:43 -33.39190 -70.80063 1572 ft 20 kts 358°
2026-05-06 00:44 -33.39048 -70.80071 1572 ft 21 kts 357°
2026-05-06 00:44 -33.38904 -70.80080 1573 ft 21 kts 357°
2026-05-06 00:44 -33.38754 -70.80092 1573 ft 22 kts 355°
2026-05-06 00:44 -33.38603 -70.80101 1573 ft 22 kts
2026-05-06 00:45 -33.38449 -70.80100 1572 ft 21 kts 10°
2026-05-06 00:45 -33.38391 -70.79985 1571 ft 16 kts 86°
2026-05-06 00:45 -33.38386 -70.79852 1570 ft 16 kts 88°
2026-05-06 00:45 -33.38381 -70.79715 1570 ft 17 kts 86°
2026-05-06 00:46 -33.38375 -70.79576 1570 ft 17 kts 87°
2026-05-06 00:46 -33.38370 -70.79435 1570 ft 17 kts 88°
2026-05-06 00:46 -33.38366 -70.79289 1570 ft 18 kts 87°
2026-05-06 00:46 -33.38359 -70.79111 1570 ft 25 kts 88°
2026-05-06 00:47 -33.38347 -70.78900 1570 ft 23 kts 71°
2026-05-06 00:47 -33.38243 -70.78853 1570 ft 19 kts 357°
2026-05-06 00:47 -33.38083 -70.78863 1570 ft 27 kts 357°
2026-05-06 00:47 -33.37872 -70.78872 1570 ft 34 kts 358°
2026-05-06 00:48 -33.37626 -70.78878 1570 ft 24 kts
2026-05-06 00:48 -33.37551 -70.78747 1569 ft 22 kts 98°
2026-05-06 00:48 -33.37639 -70.78671 1570 ft 0 kts 176°
2026-05-06 00:48 -33.37647 -70.78671 1570 ft 10 kts 178°
2026-05-06 00:49 -33.38014 -70.78649 1571 ft 100 kts 177°
2026-05-06 00:49 -33.38997 -70.78600 1701 ft 173 kts 183°
2026-05-06 00:49 -33.40328 -70.78615 2535 ft 204 kts 182°
2026-05-06 00:49 -33.41819 -70.78562 3588 ft 227 kts 175°
2026-05-06 00:50 -33.43467 -70.78504 4336 ft 249 kts 187°
2026-05-06 00:50 -33.45060 -70.79449 5083 ft 270 kts 225°
2026-05-06 00:50 -33.46141 -70.81310 6249 ft 275 kts 242°
2026-05-06 00:50 -33.47112 -70.83324 7473 ft 281 kts 244°
2026-05-06 00:51 -33.48096 -70.85400 8630 ft 293 kts 245°
2026-05-06 00:51 -33.49126 -70.87515 9011 ft 303 kts 245°
2026-05-06 00:51 -33.50212 -70.89700 9021 ft 296 kts 245°
2026-05-06 00:51 -33.51237 -70.91777 8993 ft 292 kts 245°
2026-05-06 00:52 -33.52258 -70.93876 9013 ft 292 kts 245°
2026-05-06 00:52 -33.53285 -70.95984 9009 ft 292 kts 244°
2026-05-06 00:52 -33.54665 -70.97796 9025 ft 303 kts 220°
2026-05-06 00:52 -33.56523 -70.99051 9341 ft 308 kts 212°
2026-05-06 00:53 -33.58443 -71.00205 10236 ft 309 kts 211°
2026-05-06 00:53 -33.60417 -71.01375 11257 ft 325 kts 212°
2026-05-06 00:53 -33.62483 -71.02635 12143 ft 344 kts 213°
2026-05-06 00:53 -33.64678 -71.03978 12953 ft 363 kts 213°
2026-05-06 00:54 -33.66961 -71.05367 13674 ft 383 kts 213°
2026-05-06 00:54 -33.69402 -71.06846 14329 ft 402 kts 213°
2026-05-06 00:54 -33.71931 -71.08375 15182 ft 411 kts 213°
2026-05-06 00:54 -33.74506 -71.09940 16128 ft 418 kts 213°
2026-05-06 00:55 -33.77117 -71.11530 17065 ft 424 kts 214°
2026-05-06 00:55 -33.79776 -71.13150 17964 ft 431 kts 214°
2026-05-06 00:55 -33.82468 -71.14794 18794 ft 437 kts 214°
2026-05-06 00:55 -33.85205 -71.16464 19587 ft 442 kts 214°
2026-05-06 00:56 -33.87927 -71.18122 20390 ft 447 kts 215°
2026-05-06 00:56 -33.90708 -71.19821 21179 ft 451 kts 215°
2026-05-06 00:56 -33.93515 -71.21538 21947 ft 455 kts 215°
2026-05-06 00:56 -33.96338 -71.23264 22961 ft 452 kts 216°
2026-05-06 00:57 -33.99127 -71.24965 23977 ft 448 kts 216°
2026-05-06 00:57 -34.01886 -71.26655 24863 ft 443 kts 217°
2026-05-06 00:57 -34.04625 -71.28339 25737 ft 439 kts 218°
2026-05-06 00:57 -34.07337 -71.30005 26585 ft 436 kts 218°
2026-05-06 00:58 -34.09992 -71.31633 27460 ft 432 kts 218°
2026-05-06 00:58 -34.12655 -71.33268 28369 ft 428 kts 219°
2026-05-06 00:58 -34.15295 -71.34893 28947 ft 425 kts 219°
2026-05-06 00:59 -34.20559 -71.38138 29029 ft 422 kts 220°
2026-05-06 00:59 -34.25778 -71.41354 29031 ft 421 kts 220°
2026-05-06 01:00 -34.30994 -71.44577 29034 ft 421 kts 220°
2026-05-06 01:00 -34.36212 -71.47802 29047 ft 421 kts 220°
2026-05-06 01:01 -34.41393 -71.51010 29046 ft 421 kts 220°
2026-05-06 01:01 -34.46605 -71.54241 29042 ft 421 kts 220°
2026-05-06 01:02 -34.51824 -71.57483 29044 ft 423 kts 220°
2026-05-06 01:02 -34.57029 -71.60717 29040 ft 423 kts 220°
2026-05-06 01:03 -34.62262 -71.63976 29036 ft 425 kts 220°
2026-05-06 01:03 -34.67517 -71.67247 29038 ft 424 kts 220°
2026-05-06 01:04 -34.72769 -71.70526 29032 ft 424 kts 220°
2026-05-06 01:04 -34.78018 -71.73805 29029 ft 424 kts 220°
2026-05-06 01:05 -34.83240 -71.77074 29032 ft 424 kts 220°
2026-05-06 01:05 -34.88493 -71.80367 29031 ft 427 kts 220°
2026-05-06 01:06 -34.93770 -71.83678 29032 ft 426 kts 220°
2026-05-06 01:06 -34.98145 -71.86427 29029 ft 426 kts 220°
2026-05-06 01:07 -35.04267 -71.90280 29030 ft 425 kts 220°
2026-05-06 01:07 -35.09547 -71.93614 29013 ft 429 kts 219°
2026-05-06 01:08 -35.13946 -71.96381 29025 ft 427 kts 219°
2026-05-06 01:08 -35.19218 -71.99719 29018 ft 427 kts 219°
2026-05-06 01:09 -35.25348 -72.03598 29025 ft 427 kts 219°
2026-05-06 01:09 -35.30625 -72.06945 29015 ft 427 kts 219°
2026-05-06 01:10 -35.35011 -72.09730 29013 ft 427 kts 220°
2026-05-06 01:10 -35.41167 -72.13650 29019 ft 428 kts 219°
2026-05-06 01:11 -35.45564 -72.16452 29001 ft 428 kts 219°
2026-05-06 01:11 -35.50847 -72.19823 28994 ft 428 kts 219°
2026-05-06 01:12 -35.56122 -72.23197 29001 ft 428 kts 219°
2026-05-06 01:12 -35.61378 -72.26560 28982 ft 428 kts 219°
2026-05-06 01:13 -35.66661 -72.29945 29027 ft 428 kts 219°
2026-05-06 01:13 -35.71937 -72.33333 28972 ft 428 kts 218°
2026-05-06 01:14 -35.79868 -72.38439 28498 ft 432 kts 218°
2026-05-06 01:14 -35.82505 -72.40139 27839 ft 434 kts 218°
2026-05-06 01:14 -35.85176 -72.41856 27150 ft 433 kts 218°
2026-05-06 01:15 -35.87832 -72.43606 26530 ft 428 kts 222°
2026-05-06 01:15 -35.90057 -72.45860 26271 ft 402 kts 237°
2026-05-06 01:15 -35.91949 -72.48384 25175 ft 407 kts 239°
2026-05-06 01:15 -35.93840 -72.50971 24787 ft 410 kts 237°
2026-05-06 01:16 -35.95824 -72.53543 24209 ft 416 kts 236°
2026-05-06 01:16 -35.97842 -72.56104 23667 ft 418 kts 236°
2026-05-06 01:16 -35.99846 -72.58713 23078 ft 419 kts 237°
2026-05-06 01:16 -36.01842 -72.61352 22508 ft 421 kts 236°
2026-05-06 01:17 -36.03824 -72.63949 21969 ft 422 kts 235°
2026-05-06 01:17 -36.05852 -72.66581 21388 ft 424 kts 235°
2026-05-06 01:17 -36.07890 -72.69240 20818 ft 423 kts 235°
2026-05-06 01:17 -36.09878 -72.71841 20265 ft 415 kts 235°
2026-05-06 01:18 -36.11841 -72.74417 19732 ft 407 kts 235°
2026-05-06 01:18 -36.13766 -72.76942 19207 ft 400 kts 235°
2026-05-06 01:18 -36.15657 -72.79423 18664 ft 394 kts 235°
2026-05-06 01:18 -36.17503 -72.81848 18144 ft 388 kts 235°
2026-05-06 01:19 -36.19356 -72.84283 17590 ft 381 kts 235°
2026-05-06 01:19 -36.21135 -72.86622 17114 ft 374 kts 236°
2026-05-06 01:19 -36.22898 -72.88943 16622 ft 367 kts 236°
2026-05-06 01:19 -36.24635 -72.91232 16139 ft 361 kts 236°
2026-05-06 01:20 -36.26338 -72.93477 15663 ft 355 kts 236°
2026-05-06 01:20 -36.28019 -72.95694 15209 ft 349 kts 236°
2026-05-06 01:20 -36.29673 -72.97878 14726 ft 345 kts 236°
2026-05-06 01:20 -36.31372 -72.99957 14284 ft 348 kts 225°
2026-05-06 01:21 -36.33567 -73.01322 13819 ft 357 kts 209°
2026-05-06 01:21 -36.35857 -73.02369 13337 ft 355 kts 207°
2026-05-06 01:21 -36.38168 -73.03377 12862 ft 349 kts 207°
2026-05-06 01:21 -36.40428 -73.04415 12478 ft 341 kts 208°
2026-05-06 01:22 -36.42624 -73.05452 12061 ft 335 kts 208°
2026-05-06 01:22 -36.44795 -73.06464 11627 ft 332 kts 207°
2026-05-06 01:22 -36.46935 -73.07448 11214 ft 322 kts 207°
2026-05-06 01:22 -36.48990 -73.08391 10799 ft 308 kts 207°
2026-05-06 01:23 -36.50957 -73.09305 10403 ft 295 kts 207°
2026-05-06 01:23 -36.52815 -73.10169 10013 ft 283 kts 207°
2026-05-06 01:23 -36.54628 -73.11012 9621 ft 272 kts 207°
2026-05-06 01:23 -36.56368 -73.11820 9245 ft 263 kts 207°
2026-05-06 01:24 -36.58054 -73.12603 8894 ft 255 kts 207°
2026-05-06 01:24 -36.59697 -73.13367 8566 ft 249 kts 208°
2026-05-06 01:24 -36.61305 -73.14116 8249 ft 244 kts 208°
2026-05-06 01:24 -36.62882 -73.14850 7932 ft 240 kts 208°
2026-05-06 01:25 -36.64411 -73.15562 7623 ft 236 kts 208°
2026-05-06 01:25 -36.65939 -73.16274 7316 ft 234 kts 208°
2026-05-06 01:25 -36.67457 -73.16982 7004 ft 232 kts 208°
2026-05-06 01:25 -36.68973 -73.17687 6709 ft 231 kts 208°
2026-05-06 01:26 -36.70476 -73.18379 6396 ft 231 kts 206°
2026-05-06 01:26 -36.72085 -73.18699 6079 ft 234 kts 191°
2026-05-06 01:26 -36.73679 -73.18920 5777 ft 229 kts 192°
2026-05-06 01:26 -36.75243 -73.19163 5482 ft 225 kts 193°
2026-05-06 01:27 -36.76786 -73.19410 5179 ft 222 kts 193°
2026-05-06 01:27 -36.78289 -73.19643 4859 ft 215 kts 194°
2026-05-06 01:27 -36.79770 -73.19896 4603 ft 214 kts 193°
2026-05-06 01:27 -36.81217 -73.20108 4321 ft 212 kts 193°
2026-05-06 01:28 -36.82673 -73.20332 4047 ft 209 kts 194°
2026-05-06 01:28 -36.84118 -73.20580 3764 ft 208 kts 197°
2026-05-06 01:28 -36.85567 -73.20636 3414 ft 216 kts 166°
2026-05-06 01:28 -36.86819 -73.19665 3174 ft 212 kts 137°
2026-05-06 01:29 -36.87738 -73.18263 2922 ft 202 kts 112°
2026-05-06 01:29 -36.88183 -73.16675 2675 ft 189 kts 89°
2026-05-06 01:29 -36.88206 -73.15160 2508 ft 164 kts 68°
2026-05-06 01:29 -36.87920 -73.13871 2494 ft 147 kts 51°
2026-05-06 01:30 -36.87386 -73.12747 2496 ft 150 kts 40°
2026-05-06 01:30 -36.86625 -73.11910 2293 ft 149 kts 27°
2026-05-06 01:30 -36.85696 -73.11289 1752 ft 154 kts 24°
2026-05-06 01:30 -36.84810 -73.10746 1488 ft 126 kts 21°
2026-05-06 01:31 -36.84120 -73.10336 1319 ft 99 kts 16°
2026-05-06 01:31 -36.83484 -73.09956 995 ft 109 kts 21°
2026-05-06 01:31 -36.82771 -73.09518 800 ft 116 kts 22°
2026-05-06 01:31 -36.81970 -73.09081 680 ft 132 kts 24°
2026-05-06 01:32 -36.81150 -73.08555 725 ft 136 kts 27°
2026-05-06 01:32 -36.80313 -73.08084 455 ft 128 kts 19°
2026-05-06 01:32 -36.79548 -73.07578 261 ft 121 kts 24°
2026-05-06 01:32 -36.78792 -73.07145 171 ft 118 kts 29°
2026-05-06 01:33 -36.78072 -73.06764 176 ft 118 kts 15°
2026-05-06 01:33 -36.77326 -73.06251 767 ft 119 kts 28°
2026-05-06 01:33 -36.76580 -73.05834 1666 ft 114 kts 15°
2026-05-06 01:33 -36.75886 -73.05477 2806 ft 118 kts 12°
2026-05-06 01:34 -36.75043 -73.05024 3434 ft 151 kts 13°
2026-05-06 01:34 -36.73917 -73.04412 3399 ft 193 kts 17°
2026-05-06 01:34 -36.72691 -73.03675 3286 ft 195 kts 19°